Regional Weather Roundup
Issued by NWS

Home | Current Version | Previous Version | Graphics & Text | Print | Product List | Glossary Off
Versions: 1 2 3 4 5 6 7 8 9 10 11 12 13 14 15 16 17 18 19 20 21 22 23 24 25 26 27 28 29 30 31 32 33 34 35 36 37 38 39 40 41 42 43 44 45 46 47 48 49 50

000
ASUS43 KMKX 130620
RWRWI

WISCONSIN REGIONAL WEATHER ROUNDUP
NATIONAL WEATHER SERVICE MILWAUKEE/SULLIVAN WI
1200 AM CST SAT FEB 13 2016

NOTE: "FAIR" INDICATES FEW OR NO CLOUDS BELOW 12,000 FEET WITH NO
SIGNIFICANT WEATHER AND/OR OBSTRUCTIONS TO VISIBILITY.

WIZ001-002-006>008-014>016-023>028-130700-
NORTHWEST WISCONSIN

CITY           SKY/WX    TMP DP  RH WIND       PRES   REMARKS
SUPERIOR ARPT  MOCLDY    -5 -17  57 NW9       30.62R WCI -21
6HR MIN TEMP:  -5; 6HR MAX TEMP:   2;

ASHLAND        CLOUDY    -3  -9  75 NW7       30.53S HAZE    WCI -16
6HR MIN TEMP:  -4; 6HR MAX TEMP:   1;

HAYWARD        CLOUDY    -6 -18  56 CALM      30.51R
6HR MIN TEMP:  -6; 6HR MAX TEMP:   1;

SIREN          CLOUDY    -5 -17  55 NW6       30.58R WCI -17
6HR MIN TEMP:  -5; 6HR MAX TEMP:   3;

CUMBERLAND     CLOUDY    -6 -18  54 NW13      30.52R WCI -25
RICE LAKE      CLOUDY    -4 -17  53 NW5       30.54S WCI -14
6HR MIN TEMP:  -4; 6HR MAX TEMP:   3;

CHETEK         CLOUDY    -4 -16  57 NW3       30.53S
6HR MIN TEMP:  -4; 6HR MAX TEMP:   2;

LADYSMITH      CLOUDY    -5 -18  53 NW7       30.50R WCI -19
6HR MIN TEMP:  -5; 6HR MAX TEMP:   2;

EAU CLAIRE     CLOUDY    -1 -17  46 NW7       30.54R WCI -14
6HR MIN TEMP:  -1; 6HR MAX TEMP:   4;

MENOMONIE      CLOUDY     0 -15  50 NW10      30.56R WCI -17
6HR MIN TEMP:   0; 6HR MAX TEMP:   6;

NEW RICHMOND   CLOUDY    -4 -15  58 NW8       30.58S WCI -19
6HR MIN TEMP:  -4; 6HR MAX TEMP:   4;

OSCEOLA        CLOUDY    -1 -14  53 NW7       30.63R WCI -14
6HR MIN TEMP:  -1; 6HR MAX TEMP:   5;

$$

WIZ003>005-009-010-017-018-130700-
NORTH CENTRAL WISCONSIN

CITY           SKY/WX    TMP DP  RH WIND       PRES   REMARKS
MANITOWISH WTR LGT SNOW  -6 -11  79 NW9       30.35S WCI -22
6HR MIN TEMP:  -6; 6HR MAX TEMP:  -3;

ARBOR VITAE    FLURRIES  -4 -10  75 NW7       30.35R WCI -17
6HR MIN TEMP:  -4; 6HR MAX TEMP:  -1;

WOODRUFF       FLURRIES  -4 -10  75 NW7       30.35R WCI -17
6HR MIN TEMP:  -4; 6HR MAX TEMP:  -1;

RHINELANDER    CLEAR     -7 -15  68 W9        30.34S WCI -24
6HR MIN TEMP:  -7; 6HR MAX TEMP:  -3;

EAGLE RIVER    FLURRIES  -6 -11  77 W5        30.32R WCI -16
LAND O LAKES   PTCLDY    -1  -6  80 NW7       30.32R WCI -15
6HR MIN TEMP:  -3; 6HR MAX TEMP:  -1;

PHILLIPS       CLOUDY    -9 -17  68 CALM      30.41S
6HR MIN TEMP:  -9; 6HR MAX TEMP:  -2;

TOMAHAWK       CLEAR     -7 -15  66 NW9       30.39R WCI -24
6HR MIN TEMP:  -7; 6HR MAX TEMP:  -2;

MEDFORD        CLEAR     -6 -18  56 NW9       30.41R WCI -22
6HR MIN TEMP:  -6; 6HR MAX TEMP:   0;

MERRILL        CLEAR    N/A N/A N/A NW8       30.41S
$$

WIZ029-030-035-036-043>047-130700-
CENTRAL WISCONSIN

CITY           SKY/WX    TMP DP  RH WIND       PRES   REMARKS
WAUSAU         CLEAR     -2 -15  54 NW9       30.41R WCI -18
6HR MIN TEMP:  -2; 6HR MAX TEMP:   3;

MOSINEE        CLEAR     -4 -15  59 CALM      30.43S
MARSHFIELD     CLEAR     -3 -19  46 NW10      30.44R WCI -20
6HR MIN TEMP:  -4; 6HR MAX TEMP:   3;

STEVENS POINT  CLEAR     -4 -17  52 W6        30.45S WCI -16
6HR MIN TEMP:  -4; 6HR MAX TEMP:   3;

WAUPACA        CLEAR      1 -14  48 W6        30.47S WCI -10
6HR MIN TEMP:   1; 6HR MAX TEMP:   8;

WAUTOMA        PTCLDY    -3 -17  51 NW9       30.49S WCI -19
6HR MIN TEMP:  -3; 6HR MAX TEMP:   7;

WISC RAPIDS    CLEAR     -3 -17  51 NW7       30.49R WCI -16
6HR MIN TEMP:  -3; 6HR MAX TEMP:   5;

CAMP DOUGLAS   CLOUDY    -5 -16  59 W9        30.51R WCI -22
6HR MIN TEMP:  -6; 6HR MAX TEMP:   6;

$$

WIZ011>013-019>022-031-037>040-048>050-130700-
NORTHEAST WISCONSIN

CITY           SKY/WX    TMP DP  RH WIND       PRES   REMARKS
ANTIGO         CLEAR     -6 -14  68 NW10      30.35S WCI -24
6HR MIN TEMP:  -6; 6HR MAX TEMP:  -2;

SHAWANO        PTCLDY     1 -12  56 W8        30.45R WCI -14
6HR MIN TEMP:   0; 6HR MAX TEMP:   6;

OCONTO         CLEAR     -3 -12  65 W7        30.44R WCI -16
6HR MIN TEMP:  -3; 6HR MAX TEMP:   4;

STURGEON BAY   CLEAR      0 -11  60 W12       30.41S WCI -18
6HR MIN TEMP:   0; 6HR MAX TEMP:   3;

GREEN BAY      CLEAR     -1 -12  59 W12       30.45R WCI -18
6HR MIN TEMP:  -2; 6HR MAX TEMP:   5;

MANITOWOC      CLEAR      0 -11  59 NW15      30.44R WCI -19
6HR MIN TEMP:   0; 6HR MAX TEMP:   8;

APPLETON       CLEAR      0 -15  50 W13       30.42S WCI -18
CLINTONVILLE   CLEAR      0 -15  50 W6        30.45S WCI -12
OSHKOSH        CLEAR     -1 -13  56 W9        30.45S WCI -16
6HR MIN TEMP:  -1; 6HR MAX TEMP:   8;

$$

WIZ032>034-041-042-053>061-130700-
SOUTHWEST WISCONSIN

CITY           SKY/WX    TMP DP  RH WIND       PRES   REMARKS
LA CROSSE      CLOUDY    -1 -13  56 NW7       30.58R WCI -14
6HR MIN TEMP:  -1; 6HR MAX TEMP:   8;

SPARTA         CLOUDY     1 -14  50 NW7       30.55R WCI -12
6HR MIN TEMP:   0; 6HR MAX TEMP:   8;

VIROQUA        CLOUDY    -2 -14  57 NW10      30.49S WCI -19
6HR MIN TEMP:  -3; 6HR MAX TEMP:   6;

BOSCOBEL       CLOUDY     1 -11  57 CALM      30.57R
6HR MIN TEMP:   0; 6HR MAX TEMP:  13;

PRAIRIE DU CHI CLOUDY     2 -11  53 NW7       30.58R WCI -10
6HR MIN TEMP:   2; 6HR MAX TEMP:  11;

PLATTEVILLE    CLEAR      4  -9  55 NW3       30.52R
6HR MIN TEMP:   4; 6HR MAX TEMP:  12;

$$

WIZ056-057-062-063-064-067-068-130700-
SOUTH CENTRAL WISCONSIN

CITY           SKY/WX    TMP DP  RH WIND       PRES   REMARKS
REEDSBURG      CLEAR      0 -14  50 W5        30.51S WCI -10
6HR MIN TEMP:   0; 6HR MAX TEMP:   8;

BARABOO/DELLS  CLEAR      0 -17  45 W3        30.49S
6HR MIN TEMP:   0; 6HR MAX TEMP:   8;

LONE ROCK      CLEAR      1 -13  51 W5        30.55R WCI  -9
6HR MIN TEMP:   1; 6HR MAX TEMP:  12;

MINERAL POINT  CLEAR      3 -13  47 NW7       30.49R WCI  -9
MADISON        CLEAR      2 -14  47 NW8       30.50R WCI -12
6HR MIN TEMP:   2; 6HR MAX TEMP:  10;

MIDDLETON      CLEAR      3 -11  51 NW7       30.51R WCI  -9
6HR MIN TEMP:   3; 6HR MAX TEMP:  11;

WATERTOWN      CLEAR      2 -10  57 NW9       30.48R WCI -12
6HR MIN TEMP:   2; 6HR MAX TEMP:  10;

MONROE         CLEAR      5  -9  51 NW8G16    30.47S WCI  -8
JANESVILLE     CLEAR      7  -9  47 NW12      30.50R WCI  -9
$$

WIZ051-052-058>065-066-070>072-130700-
SOUTHEAST WISCONSIN

CITY           SKY/WX    TMP DP  RH WIND       PRES   REMARKS
MILWAUKEE      CLEAR      3 -13  47 NW13G21   30.47R WCI -14
6HR MIN TEMP:   3; 6HR MAX TEMP:  12;

WAUKESHA       CLEAR      1 -13  51 NW9       30.47R WCI -14
MILWAUKEE/TIMM CLEAR      3 -13  47 NW10G17   30.48R WCI -12
RACINE         CLEAR      4 -13  45 NW15G21   30.48R WCI -14
6HR MIN TEMP:   4; 6HR MAX TEMP:  12;

BURLINGTON     CLEAR      2 -12  51 N12       30.48R WCI -15
6HR MIN TEMP:   2; 6HR MAX TEMP:  11;

KENOSHA        CLEAR      4 -11  50 NW16      30.47R WCI -15
6HR MIN TEMP:   4; 6HR MAX TEMP:  13;

FOND DU LAC    MIX PCPN   0 -12  57 W9        30.46S WCI -15
6HR MIN TEMP:   0; 6HR MAX TEMP:   9; 6HR PCP: TRACE;

SHEBOYGAN      CLEAR      1 -12  54 NW9       30.44R WCI -14
6HR MIN TEMP:   1; 6HR MAX TEMP:   8;

WEST BEND      CLEAR      1 -13  51 CALM      30.44S
JUNEAU         CLEAR      0 -12  56 NW6       30.47S WCI -12
6HR MIN TEMP:   0; 6HR MAX TEMP:   8;

$$

LSZ147-162-130700-
LAKE SUPERIOR

STATION/POSITION TIME  TEMP    WIND        PRES    WAVE
                       AIR SEA DIR/SP/G            HT/PER
                 (UTC) (F)     (DEG/KT/KT) (MB)    (FT/S)
DEVILS ISLAND    0600    1     340/ 19/ 24 1036.0R
SAXON HARBOR     0500    3                 1032.2F
$$

LMZ867-665-643>646-130700-
LAKE MICHIGAN

STATION/POSITION TIME  TEMP    WIND        PRES    WAVE
                       AIR SEA DIR/SP/G            HT/PER
                 (UTC) (F)     (DEG/KT/KT) (MB)    (FT/S)
CHAMBERS ISLAND  0500    1     260/  8/ 15 1029.1R
SISTER BAY       0505    2     310/ 21/ 2C1F1C2F2C3F3C4F4C5F5C6F6C7F7C8M1C9M2Ca!


USA.gov is the U.S. government's official web portal to all federal, state and local government web resources and services.